DW3637 Weather Reports


Display with metric or nautical units.
time (UTC)temp
F
wind
direction
speed
MPH
gust
MPH
rain 1hr
in
rain 24hr
in
rain mn
in
humidity
%
barometer
mb
20260903083518 63 0.0 0.0 0.00 0.05 0.05 95 1014.8
20260903082544 63 0.0 0.0 0.00 0.05 0.05 95 1014.8
20260903081521 63 0.0 0.0 0.00 0.05 0.05 95 1014.8
20260903080518 63 0.0 0.0 0.00 0.05 0.05 95 1015.0
20260903075537 63 0.0 0.0 0.00 0.05 0.05 94 1014.9
20260903074526 63 0.0 0.0 0.00 0.05 0.05 94 1014.9
20260903073536 63 0.0 0.0 0.00 0.05 0.05 94 1014.9
20260903072535 63 0.0 0.0 0.00 0.05 0.05 94 1015.0
20260903071538 63 0.0 0.0 0.01 0.05 0.05 94 1015.1
20260903070529 63 0.0 1.0 0.02 0.05 0.05 93 1015.2
20260903065524 63 0.0 1.0 0.03 0.05 0.05 93 1014.9
20260903064518 63 0.0 1.0 0.05 0.05 0.05 93 1014.9
20260903063517 63 0.0 0.0 0.05 0.05 0.05 92 1015.1
20260903062559 63 0.0 0.0 0.05 0.05 0.05 91 1015.3
20260903061516 64 0.0 0.0 0.04 0.04 0.04 89 1015.8
20260903060516 64 0.0 1.0 0.03 0.03 0.03 88 1015.9
20260903055519 65 0.0 0.0 0.02 0.02 0.02 86 1016.3
20260903054517 65 0.0 1.0 0.00 0.00 0.00 85 1016.8
20260903053543 65 0.0 1.0 0.00 0.00 0.00 83 1017.0
20260903052516 66 0.0 1.0 0.00 0.00 0.00 82 1017.1
20260903051516 66 0.0 1.0 0.00 0.00 0.00 81 1017.2
20260903050519 66 0.0 3.0 0.00 0.00 0.00 81 1017.1
20260903045517 66 0.0 4.0 0.00 0.00 0.00 81 1017.4
20260903044518 66 0.0 1.0 0.00 0.00 0.00 80 1017.4
20260903043516 66 0.0 1.0 0.00 0.00 0.00 80 1017.2
20260903042517 67 0.0 1.0 0.00 0.00 0.00 80 1017.2
20260903041517 67 0.0 1.0 0.00 0.00 0.00 80 1017.4
20260903040518 66 0.0 0.0 0.00 0.00 0.00 80 1017.4
20260903040016 66 0.0 0.0 0.00 0.00 0.00 80 1017.4
20260903035018 67 0.0 1.0 0.00 0.00 0.00 80 1017.4
20260903034036 67 0.0 1.0 0.00 0.00 0.00 79 1017.2
20260903033017 67 0.0 0.0 0.00 0.00 0.00 77 1017.1
20260903032024 67 0.0 0.0 0.00 0.00 0.00 77 1017.0
20260903031020 67 0.0 1.0 0.00 0.00 0.00 76 1017.3
20260903030101 67 0.0 0.0 0.00 0.00 0.00 75 1017.4
20260903025040 67 0.0 1.0 0.00 0.00 0.00 73 1017.8
20260903024017 67 0.0 1.0 0.00 0.00 0.00 73 1018.0
20260903023017 68 0.0 0.0 0.00 0.00 0.00 72 1018.2
20260903022057 68 0.0 1.0 0.00 0.00 0.00 71 1018.5
20260903021036 68 0.0 0.0 0.00 0.00 0.00 71 1018.6
20260903020016 68 0.0 0.0 0.00 0.02 0.00 70 1018.8
20260903015016 68 0.0 1.0 0.00 0.02 0.00 70 1018.7
20260903014017 68 0.0 0.0 0.00 0.02 0.00 70 1018.8
20260903013017 68 0.0 1.0 0.00 0.02 0.00 70 1018.8
20260903012017 68 0.0 0.0 0.00 0.02 0.00 70 1018.6
20260903011016 69 0.0 1.0 0.00 0.02 0.00 69 1018.1
20260903010016 69 0.0 1.0 0.00 0.02 0.00 69 1017.8
20260903005016 69 0.0 1.0 0.00 0.02 0.00 71 1017.8
20260903004021 69 0.0 2.0 0.00 0.02 0.00 71 1018.1
20260903003016 69 0.0 1.0 0.00 0.02 0.00 74 1018.2
20260903002019 70 0.0 1.0 0.00 0.02 0.00 75 1018.5
20260903001036 70 0.0 1.0 0.00 0.02 0.00 74 1018.3
20260903000022 70 0.0 1.0 0.00 0.02 0.00 74 1018.3
20260902235022 70 0.0 1.0 0.00 0.02 0.00 72 1018.1
20260902234040 71 0.0 0.0 0.00 0.02 0.00 71 1018.2
20260902233019 71 0.0 1.0 0.00 0.02 0.00 70 1018.3
20260902232017 71 0.0 0.0 0.00 0.02 0.00 69 1018.6
20260902231016 71 0.0 2.0 0.00 0.02 0.00 70 1019.1
20260902230016 72 0.0 1.0 0.00 0.02 0.00 74 1019.3
20260902225019 72 0.0 0.0 0.00 0.02 0.00 73 1019.3
20260902224017 72 0.0 0.0 0.00 0.02 0.00 73 1019.5
20260902223016 72 0.0 4.0 0.00 0.02 0.00 72 1019.5
20260902222016 73 225 1.0 4.0 0.00 0.02 0.00 72 1019.4
20260902221016 73 0.0 4.0 0.00 0.02 0.00 73 1019.2
20260902220036 73 0.0 1.0 0.00 0.02 0.00 73 1019.2
20260902215017 73 0.0 1.0 0.00 0.02 0.00 74 1019.2
20260902214037 73 0.0 1.0 0.00 0.02 0.00 73 1019.3
20260902213016 73 0.0 1.0 0.00 0.03 0.00 72 1019.1
20260902212036 73 0.0 2.0 0.00 0.03 0.00 71 1018.9
20260902211016 74 293 1.0 6.0 0.00 0.03 0.00 70 1019.0
20260902210017 74 0.0 0.0 0.00 0.03 0.00 71 1018.8
20260902205018 74 0.0 1.0 0.00 0.03 0.00 70 1018.9
20260902204038 74 0.0 1.0 0.00 0.04 0.00 70 1018.6
20260902203023 74 0.0 4.0 0.00 0.04 0.00 70 1018.9
20260902202019 74 0.0 1.0 0.00 0.04 0.00 69 1019.1
20260902201018 74 0.0 1.0 0.00 0.04 0.00 68 1019.1
20260902200021 74 0.0 1.0 0.00 0.04 0.00 69 1019.2
20260902195019 74 225 1.0 3.0 0.00 0.04 0.00 67 1019.3
20260902194018 74 0.0 1.0 0.00 0.04 0.00 69 1019.3
20260902193018 73 0.0 0.0 0.00 0.04 0.00 71 1019.5
20260902192018 73 0.0 2.0 0.00 0.05 0.00 70 1019.6
20260902191019 74 0.0 1.0 0.00 0.05 0.00 68 1019.7
20260902190021 74 0.0 3.0 0.00 0.05 0.00 69 1019.6
20260902185021 74 0.0 1.0 0.00 0.05 0.00 69 1019.6
20260902184019 74 0.0 1.0 0.00 0.05 0.00 68 1019.6
20260902183018 74 0.0 5.0 0.00 0.05 0.00 67 1019.6
20260902182018 76 0.0 1.0 0.00 0.06 0.00 65 1019.6
20260902181019 76 0.0 4.0 0.00 0.06 0.00 66 1019.8
20260902180038 76 0.0 3.0 0.00 0.06 0.00 64 1019.9
20260902175020 75 0.0 2.0 0.00 0.06 0.00 65 1019.9
20260902174020 75 0.0 2.0 0.00 0.06 0.00 66 1019.9
20260902173026 74 0.0 1.0 0.00 0.07 0.00 67 1020.0
20260902172021 74 68 1.0 4.0 0.00 0.07 0.00 68 1020.0
20260902171044 73 225 1.0 8.0 0.00 0.07 0.00 68 1020.0
20260902170021 73 0.0 4.0 0.00 0.08 0.00 70 1019.9
20260902165040 74 0.0 2.0 0.00 0.09 0.00 72 1020.0
20260902164020 73 0.0 1.0 0.00 0.18 0.00 72 1020.3
20260902163018 73 0.0 1.0 0.00 0.32 0.00 73 1020.5
20260902162038 71 0.0 1.0 0.00 0.32 0.00 76 1020.5
20260902161019 71 0.0 2.0 0.00 0.32 0.00 76 1020.5
20260902160017 71 0.0 3.0 0.00 0.32 0.00 76 1020.6
20260902155017 71 0.0 0.0 0.00 0.32 0.00 78 1020.7
20260902154018 70 45 1.0 3.0 0.00 0.32 0.00 79 1020.8
20260902153027 70 0.0 1.0 0.00 0.32 0.00 81 1020.8
20260902152025 69 45 1.0 3.0 0.00 0.32 0.00 83 1021.0
20260902151040 69 0.0 0.0 0.00 0.32 0.00 89 1021.2
20260902150018 68 23 1.0 3.0 0.00 0.32 0.00 91 1021.3
20260902145040 67 0.0 1.0 0.00 0.32 0.00 98 1021.0
20260902144018 66 0.0 0.0 0.00 0.32 0.00 99 1020.9
20260902143057 65 0.0 1.0 0.00 0.32 0.00 99 1021.2
20260902142022 65 0.0 0.0 0.00 0.32 0.00 99 1021.2
20260902141017 65 0.0 2.0 0.00 0.33 0.00 99 1021.2
20260902140039 65 0.0 1.0 0.00 0.33 0.00 99 1021.0
20260902135017 64 0.0 1.0 0.00 0.33 0.00 99 1020.9
20260902134017 64 0.0 1.0 0.00 0.33 0.00 99 1020.8
20260902133027 64 0.0 1.0 0.00 0.33 0.00 99 1020.6
20260902132026 63 0.0 1.0 0.00 0.33 0.00 99 1020.5
20260902131047 63 0.0 1.0 0.00 0.34 0.00 99 1020.7
20260902130040 63 0.0 1.0 0.00 0.44 0.00 99 1020.7
20260902125020 63 0.0 0.0 0.00 0.44 0.00 99 1020.6
20260902124037 62 0.0 0.0 0.00 0.45 0.00 99 1020.7
20260902123017 62 0.0 1.0 0.00 0.48 0.00 99 1020.6
20260902122017 62 0.0 1.0 0.00 0.59 0.00 99 1020.5
20260902121020 62 0.0 0.0 0.00 0.60 0.00 99 1020.7
20260902120017 62 0.0 0.0 0.00 0.61 0.00 99 1020.6
20260902115017 62 0.0 1.0 0.00 0.63 0.00 99 1020.6
20260902114017 62 0.0 1.0 0.00 0.66 0.00 99 1020.7
20260902113022 62 0.0 0.0 0.00 0.71 0.00 99 1020.9
20260902112018 62 0.0 0.0 0.00 0.77 0.00 99 1021.0
20260902111018 61 0.0 1.0 0.00 0.82 0.00 99 1020.8
20260902110018 61 0.0 0.0 0.00 0.95 0.00 99 1020.7
20260902105018 61 0.0 0.0 0.00 0.97 0.00 99 1020.6
20260902104039 61 0.0 0.0 0.00 0.98 0.00 99 1020.5
20260902103020 61 0.0 0.0 0.00 0.99 0.00 99 1020.4
20260902102017 61 0.0 0.0 0.00 0.99 0.00 99 1020.2
20260902101057 61 0.0 0.0 0.00 0.99 0.00 99 1020.1
20260902100021 61 0.0 0.0 0.00 0.99 0.00 99 1020.2
20260902095025 61 0.0 0.0 0.00 0.99 0.00 99 1020.1
20260902094019 61 0.0 1.0 0.00 0.99 0.00 99 1020.0
20260902093021 61 0.0 0.0 0.00 0.99 0.00 99 1019.9
20260902092026 61 0.0 0.0 0.00 1.00 0.00 99 1019.8
20260902091016 61 0.0 0.0 0.00 1.01 0.00 99 1019.6
20260902090041 61 0.0 0.0 0.00 1.01 0.00 99 1019.6
20260902085021 61 0.0 0.0 0.00 1.02 0.00 99 1019.7
20260902084017 61 0.0 0.0 0.00 1.03 0.00 99 1019.7